START_TIME,STEP,MOV.,M15,t_acc.,M20,t_acc.
1979-07-22 23:07:55.490 ,0,0,0.,24.0,0.,24.0
1979-07-22 23:08:43.490 ,4,0,0.,24.0,0.,24.0
1979-07-22 23:09:07.490 ,3,1,0.,24.0,0.,24.0
1979-07-22 23:09:31.490 ,3,0,0.,24.0,0.,24.0
1979-07-22 23:09:55.490 ,2,1,0.,24.0,0.,24.0
1979-07-22 23:10:19.490 ,2,0,0.,24.0,0.,24.0
1979-07-22 23:10:43.490 ,1,1,0.,24.0,0.,24.0
1979-07-22 23:11:07.490 ,1,0,0.,24.0,0.,24.0
1979-07-22 23:11:31.490 ,0,1,0.,24.0,0.,24.0
1979-07-22 23:11:55.490 ,0,0,0.,24.0,0.,24.0
1979-07-22 23:12:19.490 ,0,1,0.,24.0,0.,24.0
1979-07-22 23:12:43.490 ,0,0,0.,24.0,0.,24.0
1979-07-22 23:13:07.490 ,1,1,0.,24.0,0.,24.0
1979-07-22 23:13:31.490 ,1,0,0.,24.0,0.,24.0
1979-07-22 23:13:55.490 ,2,1,0.,24.0,0.,24.0
1979-07-22 23:14:19.490 ,2,0,0.,24.0,0.,24.0
1979-07-22 23:14:43.490 ,3,1,0.,24.0,0.,24.0
1979-07-22 23:15:07.490 ,3,0,0.,24.0,0.,24.0
1979-07-22 23:15:31.490 ,4,1,0.,24.0,0.,24.0
1979-07-22 23:15:55.490 ,4,0,0.,24.0,0.,24.0
1979-07-22 23:16:19.490 ,5,1,0.,24.0,0.,24.0
1979-07-22 23:16:43.490 ,5,0,0.,24.0,0.,24.0
1979-07-22 23:17:07.490 ,6,1,0.,24.0,0.,24.0
1979-07-22 23:17:31.490 ,6,0,0.,24.0,0.,24.0
1979-07-22 23:17:55.490 ,7,1,0.,24.0,0.,24.0
1979-07-22 23:18:19.490 ,7,0,0.,24.0,0.,24.0
1979-07-22 23:18:43.490 ,7,1,0.,24.0,0.,24.0
1979-07-22 23:19:07.490 ,7,0,0.,24.0,0.,24.0
1979-07-22 23:19:31.490 ,6,1,0.,24.0,0.,24.0
1979-07-22 23:19:55.490 ,6,0,0.,24.0,0.,24.0
1979-07-22 23:20:19.490 ,5,1,0.,24.0,0.,24.0
1979-07-22 23:20:43.490 ,5,0,0.,24.0,0.,24.0
1979-07-22 23:21:07.490 ,4,1,0.,24.0,0.,24.0
1979-07-22 23:21:31.490 ,4,0,0.,24.0,0.,24.0
1979-07-22 23:21:55.490 ,3,1,0.,24.0,0.,24.0
1979-07-22 23:22:19.490 ,3,0,0.,24.0,0.,24.0
1979-07-22 23:22:43.490 ,2,1,0.,24.0,0.,24.0
1979-07-22 23:23:07.490 ,2,0,0.,24.0,0.,24.0
1979-07-22 23:23:31.490 ,1,1,0.,24.0,0.,24.0
1979-07-22 23:23:55.490 ,1,0,0.,24.0,0.,24.0
1979-07-22 23:24:19.490 ,0,1,0.,24.0,0.,24.0
1979-07-22 23:24:43.490 ,0,0,0.,24.0,0.,24.0
1979-07-22 23:25:07.490 ,0,1,0.,24.0,0.,24.0
1979-07-22 23:25:31.490 ,0,0,0.,24.0,0.,24.0
1979-07-22 23:25:55.490 ,1,1,0.,24.0,0.,24.0
1979-07-22 23:26:19.490 ,1,0,0.,24.0,0.,24.0
1979-07-22 23:26:43.490 ,2,1,0.,24.0,0.,24.0
1979-07-22 23:27:07.490 ,2,0,0.,24.0,0.,24.0
1979-07-22 23:27:31.490 ,3,1,0.,24.0,0.,24.0
1979-07-22 23:27:55.490 ,3,0,0.,24.0,0.,24.0
1979-07-22 23:28:19.490 ,4,1,0.,24.0,0.,24.0
1979-07-22 23:28:43.490 ,4,0,0.,24.0,0.,24.0
1979-07-22 23:29:07.490 ,5,1,0.,24.0,0.,24.0
1979-07-22 23:29:31.490 ,5,0,0.,24.0,0.,24.0
1979-07-22 23:29:55.490 ,6,1,0.,24.0,0.,24.0
1979-07-22 23:30:19.490 ,6,0,0.,24.0,0.,24.0
1979-07-22 23:30:43.490 ,7,0,0.,24.0,0.,24.0
1979-07-22 23:31:07.490 ,7,0,0.,24.0,0.,24.0
1979-07-22 23:31:31.490 ,3,1,0.,24.0,0.,24.0
1979-07-22 23:31:55.490 ,0,1,0.,24.0,0.,24.0
1979-07-22 23:32:19.490 ,4,1,0.,24.0,0.,24.0
1979-07-22 23:32:43.490 ,7,1,0.,24.0,0.,24.0
1979-07-22 23:33:07.490 ,3,1,0.,24.0,0.,24.0
1979-07-22 23:33:31.490 ,0,1,0.,24.0,0.,24.0
1979-07-22 23:33:55.490 ,4,1,0.,24.0,0.,24.0
1979-07-22 23:34:19.490 ,7,1,0.,24.0,0.,24.0
1979-07-22 23:34:43.490 ,3,1,0.,24.0,0.,24.0
1979-07-22 23:35:07.490 ,0,1,0.,24.0,0.,24.0
1979-07-22 23:35:31.490 ,4,1,0.,24.0,0.,24.0
1979-07-22 23:35:55.490 ,7,1,0.,24.0,0.,24.0
1979-07-22 23:36:19.490 ,3,1,0.,24.0,0.,24.0
1979-07-22 23:36:43.490 ,0,1,0.,24.0,0.,24.0
1979-07-22 23:37:07.490 ,4,1,0.,24.0,0.,24.0
1979-07-22 23:37:31.490 ,7,1,0.,24.0,0.,24.0
1979-07-22 23:37:55.490 ,3,1,0.,24.0,0.,24.0
1979-07-22 23:38:19.490 ,0,1,0.,24.0,0.,24.0
1979-07-22 23:38:43.490 ,4,1,0.,24.0,0.,24.0
1979-07-22 23:39:07.490 ,7,1,0.,24.0,0.,24.0
1979-07-22 23:39:31.490 ,3,1,0.,24.0,0.,24.0
1979-07-22 23:39:55.490 ,0,1,0.,24.0,0.,24.0
1979-07-22 23:40:19.490 ,4,1,0.,24.0,0.,24.0
1979-07-22 23:40:43.490 ,7,1,0.,24.0,0.,24.0
1979-07-22 23:41:07.490 ,3,1,0.,24.0,0.,24.0
1979-07-22 23:41:31.490 ,0,1,0.,24.0,0.,24.0
1979-07-22 23:41:55.490 ,0,0,0.,24.0,0.,24.0
1979-07-22 23:42:19.490 ,0,0,0.,24.0,0.,24.0
1979-07-22 23:42:43.490 ,5,1,0.,24.0,0.,24.0
1979-07-22 23:43:07.490 ,5,0,0.,24.0,0.,24.0
1979-07-22 23:43:31.490 ,4,1,0.,24.0,0.,24.0
1979-07-22 23:43:55.490 ,4,0,0.,24.0,0.,24.0
1979-07-22 23:44:19.490 ,3,1,0.,24.0,0.,24.0
1979-07-22 23:44:43.490 ,3,0,0.,24.0,0.,24.0
1979-07-22 23:45:07.490 ,2,1,0.,24.0,0.,24.0
1979-07-22 23:45:31.490 ,2,0,0.,24.0,0.,24.0
1979-07-22 23:45:55.490 ,1,1,0.,24.0,0.,24.0
1979-07-22 23:46:19.490 ,1,0,0.,24.0,0.,24.0
1979-07-22 23:46:43.490 ,0,1,0.,24.0,0.,24.0
1979-07-22 23:47:07.490 ,0,0,0.,24.0,0.,24.0
1979-07-22 23:47:31.490 ,0,1,0.,24.0,0.,24.0
1979-07-22 23:47:55.490 ,0,0,0.,24.0,0.,24.0
1979-07-22 23:48:19.490 ,1,1,0.,24.0,0.,24.0
1979-07-22 23:48:43.490 ,1,0,0.,24.0,0.,24.0
1979-07-22 23:49:07.490 ,2,1,0.,24.0,0.,24.0
1979-07-22 23:49:31.490 ,2,0,0.,24.0,0.,24.0
1979-07-22 23:49:55.490 ,3,1,0.,24.0,0.,24.0
1979-07-22 23:50:19.490 ,3,0,0.,24.0,0.,24.0
1979-07-22 23:50:43.490 ,4,1,0.,24.0,0.,24.0
1979-07-22 23:51:07.490 ,4,0,0.,24.0,0.,24.0
1979-07-22 23:51:31.490 ,5,1,0.,24.0,0.,24.0
1979-07-22 23:51:55.490 ,5,0,0.,24.0,0.,24.0
1979-07-22 23:52:19.490 ,6,1,0.,24.0,0.,24.0
1979-07-22 23:52:43.490 ,6,0,0.,24.0,0.,24.0
1979-07-22 23:53:07.490 ,7,1,0.,24.0,0.,24.0
1979-07-22 23:53:31.490 ,7,0,0.,24.0,0.,24.0
1979-07-22 23:53:55.490 ,7,1,0.,24.0,0.,24.0
1979-07-22 23:54:19.490 ,7,0,0.,24.0,0.,24.0
1979-07-22 23:54:43.490 ,6,1,0.,24.0,0.,24.0
1979-07-22 23:55:07.490 ,6,0,0.,24.0,0.,24.0
1979-07-22 23:55:31.490 ,5,1,0.,24.0,0.,24.0
1979-07-22 23:55:55.490 ,5,0,0.,24.0,0.,24.0
1979-07-22 23:56:19.490 ,4,1,0.,24.0,0.,24.0
1979-07-22 23:56:43.490 ,4,0,0.,24.0,0.,24.0
1979-07-22 23:57:07.490 ,3,1,0.,24.0,0.,24.0
1979-07-22 23:57:31.490 ,3,0,0.,24.0,0.,24.0
1979-07-22 23:57:55.490 ,2,1,0.,24.0,0.,24.0
1979-07-22 23:58:19.490 ,2,0,0.,24.0,0.,24.0
1979-07-22 23:58:43.490 ,1,1,0.,24.0,0.,24.0
1979-07-22 23:59:07.490 ,1,0,0.,24.0,0.,24.0
1979-07-22 23:59:31.490 ,0,1,0.,24.0,0.,24.0
1979-07-22 23:59:55.490 ,0,0,0.,24.0,0.,24.0
1979-07-23 00:00:19.490 ,0,1,0.,24.0,0.,24.0
